User: anonymous   Login
Location: D�derode
(51.8092°N, 10.1065°E)
Time: 02:27:01
(UTC+00:00)
Language:

Cosmos 2369 Rocket - Orbit

View from above orbital plane
View from above orbital plane
View from above satellite
View from above satellite

Ground track
Ground track

The orbit data is extracted from the following two-line orbital elements,

1 26070U 00006B   21059.55450886  .00000112  00000-0  81532-4 0  9996
2 26070  71.0053 355.0841 0014272  95.4570 264.8181 14.15472230 88875
Epoch (UTC): 28 February 2021 13:18:29
Eccentricity: 0.0014272
inclination: 71.0053°
perigee height: 830 km
apogee height: 851 km
right ascension of ascending node: 355.0841°
argument of perigee: 95.4570°
revolutions per day: 14.15472230
mean anomaly at epoch: 264.8181°
orbit number at epoch: 8887

The dashed part of the orbit path shows where the satellite is in the earth's shadow,  

DLR